Weather History for Karlstad Sol, Sweden

Change the Weather History Date:

Friday, February 8, 2013

  Actual Average Record
Temperature  
Mean Temperature 20 °F -  
Max Temperature 24 °F 32 °F - ()
Min Temperature 14 °F 19 °F - ()
Degree Days  
Heating Degree Days 46    
Moisture  
Dew Point 19 °F    
Average Humidity 90    
Maximum Humidity 100    
Minimum Humidity 86    
Precipitation  
Precipitation 0.00 in 0.04 in - ()
Sea Level Pressure  
Sea Level Pressure 30.02 in    
Wind  
Wind Speed 8 mph ()    
Max Wind Speed 12 mph    
Max Gust Speed -    
Visibility 6.2 miles    
Events Snow    
T = Trace of Precipitation, MM = Missing Value Source: Averaged Metar Reports

Daily Weather History Graph

Daily Weather History Graph

Search for Another Location

Airport:

Trip Planner

Search our weather history database for the weather conditions in past years. The results will help you decide how hot, cold, wet, or windy it might be!

Date:

Astronomy

Feb. 08, 2013 Rise Set
Actual Time 8:00 AM CET 4:42 PM CET
Civil Twilight 7:16 AM CET 5:26 PM CET
Nautical Twilight 6:27 AM CET 6:15 PM CET
Astronomical Twilight 5:40 AM CET 7:02 PM CET
Moon 6:32 AM CET (2/8) 2:42 PM CET (2/8)
Length of Visible Light 10h 10m
Length of Day
8h 41m
Waning Crescent, 5% of the Moon is Illuminated
Feb 8
Waning Crescent
Feb 10
New
Feb 17
First Quarter
Feb 25
Full
Mar 4
Last Quarter

Hourly Weather History & Observations

Time (CET) Temp. Windchill Dew Point Humidity Pressure Visibility Wind Dir Wind Speed Gust Speed Precip Events Conditions
12:20 AM 21.2 °F 12.6 °F 19.4 °F 93% 29.95 in 6.2 mi North 6.9 mph - N/A   Mostly Cloudy
12:50 AM 23.0 °F 13.9 °F 21.2 °F 93% 29.95 in 6.2 mi North 8.1 mph - N/A   Mostly Cloudy
1:20 AM 23.0 °F 14.7 °F 21.2 °F 93% 29.95 in 6.2 mi North 6.9 mph - N/A   Mostly Cloudy
1:50 AM 21.2 °F 11.7 °F 21.2 °F 100% 29.95 in 6.2 mi North 8.1 mph - N/A   Mostly Cloudy
2:20 AM 21.2 °F 12.6 °F 19.4 °F 93% 29.95 in 6.2 mi North 6.9 mph - N/A   Overcast
2:50 AM 21.2 °F 10.9 °F 19.4 °F 93% 29.95 in 6.2 mi North 9.2 mph - N/A   Overcast
3:20 AM 21.2 °F 10.9 °F 19.4 °F 93% 29.95 in 6.2 mi North 9.2 mph - N/A   Overcast
3:50 AM 21.2 °F 12.6 °F 19.4 °F 93% 29.95 in 6.2 mi North 6.9 mph - N/A   Overcast
4:20 AM 21.2 °F 10.9 °F 19.4 °F 93% 29.95 in 6.2 mi North 9.2 mph - N/A   Overcast
4:50 AM 23.0 °F 13.1 °F 19.4 °F 86% 29.98 in 6.2 mi North 9.2 mph - N/A   Overcast
5:20 AM 23.0 °F 13.1 °F 19.4 °F 86% 29.98 in 6.2 mi North 9.2 mph - N/A   Overcast
5:50 AM 21.2 °F 10.1 °F 19.4 °F 93% 29.98 in 6.2 mi North 10.4 mph - N/A   Mostly Cloudy
6:20 AM 23.0 °F 12.4 °F 19.4 °F 86% 29.98 in 6.2 mi North 10.4 mph - N/A Snow Light Snow
6:50 AM 23.0 °F 12.4 °F 19.4 °F 86% 29.98 in 6.2 mi North 10.4 mph - N/A Snow Light Snow
7:20 AM 23.0 °F 13.1 °F 19.4 °F 86% 29.98 in 6.2 mi North 9.2 mph - N/A Snow Light Snow
7:50 AM 23.0 °F 11.7 °F 19.4 °F 86% 30.01 in 6.2 mi North 11.5 mph - N/A Snow Light Snow
8:20 AM 23.0 °F 13.1 °F 19.4 °F 86% 30.01 in 6.2 mi North 9.2 mph - N/A Snow Light Snow
8:50 AM 23.0 °F 12.4 °F 19.4 °F 86% 30.01 in 5.0 mi NNE 10.4 mph - N/A Snow Light Snow
9:20 AM 23.0 °F 12.4 °F 19.4 °F 86% 30.01 in 5.6 mi NNE 10.4 mph - N/A Snow Light Snow
9:50 AM 23.0 °F 11.7 °F 19.4 °F 86% 30.01 in 6.2 mi NNE 11.5 mph - N/A Snow Light Snow
10:20 AM 23.0 °F 12.4 °F 19.4 °F 86% 30.04 in 6.2 mi NNE 10.4 mph - N/A   Mostly Cloudy
10:50 AM 23.0 °F 11.7 °F 21.2 °F 93% 30.04 in 6.2 mi NNE 11.5 mph - N/A   Mostly Cloudy
11:20 AM 23.0 °F 12.4 °F 21.2 °F 93% 30.04 in 6.2 mi NNE 10.4 mph - N/A   Mostly Cloudy
11:50 AM 23.0 °F 13.1 °F 19.4 °F 86% 30.04 in 6.2 mi North 9.2 mph - N/A   Scattered Clouds
12:20 PM 23.0 °F 13.9 °F 21.2 °F 93% 30.04 in 6.2 mi North 8.1 mph - N/A   Mostly Cloudy
12:50 PM 23.0 °F 13.9 °F 21.2 °F 93% 30.04 in 6.2 mi North 8.1 mph - N/A   Mostly Cloudy
1:20 PM 24.8 °F 15.3 °F 21.2 °F 86% 30.04 in 6.2 mi North 9.2 mph - N/A   Overcast
1:50 PM 23.0 °F 13.1 °F 21.2 °F 93% 30.04 in 6.2 mi North 9.2 mph - N/A   Scattered Clouds
2:20 PM 24.8 °F 16.9 °F 21.2 °F 86% 30.04 in 6.2 mi North 6.9 mph - N/A   Mostly Cloudy
2:50 PM 24.8 °F 16.1 °F 21.2 °F 86% 30.04 in 6.2 mi North 8.1 mph - N/A   Mostly Cloudy
3:20 PM 24.8 °F 16.1 °F 21.2 °F 86% 30.04 in 6.2 mi North 8.1 mph - N/A   Overcast
3:50 PM 23.0 °F 13.9 °F 21.2 °F 93% 30.04 in 6.2 mi North 8.1 mph - N/A   Overcast
4:20 PM 23.0 °F 13.1 °F 21.2 °F 93% 30.04 in 6.2 mi North 9.2 mph - N/A   Mostly Cloudy
4:50 PM 23.0 °F 12.4 °F 21.2 °F 93% 30.06 in 6.2 mi North 10.4 mph - N/A   Mostly Cloudy
5:20 PM 23.0 °F 13.9 °F 21.2 °F 93% 30.06 in 6.2 mi North 8.1 mph - N/A   Mostly Cloudy
5:50 PM 23.0 °F 12.4 °F 19.4 °F 86% 30.06 in 6.2 mi North 10.4 mph - N/A   Overcast
6:20 PM 21.2 °F 10.1 °F 19.4 °F 93% 30.06 in 6.2 mi North 10.4 mph - N/A   Overcast
6:50 PM 21.2 °F 10.9 °F 19.4 °F 93% 30.06 in 6.2 mi North 9.2 mph - N/A   Overcast
7:20 PM 21.2 °F 10.9 °F 19.4 °F 93% 30.06 in 6.2 mi North 9.2 mph - N/A   Overcast
7:51 PM 21.2 °F 11.7 °F 17.6 °F 86% 30.06 in 6.2 mi North 8.1 mph - N/A   Overcast
8:20 PM 19.4 °F 9.5 °F 15.8 °F 86% 30.06 in 6.2 mi North 8.1 mph - N/A   Scattered Clouds
8:50 PM 17.6 °F 5.7 °F 15.8 °F 93% 30.06 in 6.2 mi North 10.4 mph - N/A   Scattered Clouds
9:20 PM 17.6 °F 5.7 °F 14.0 °F 86% 30.06 in - North 10.4 mph - N/A   Clear
10:20 PM 15.8 °F 4.2 °F 12.2 °F 86% 30.06 in - North 9.2 mph - N/A   Clear
10:50 PM 15.8 °F 5.1 °F 12.2 °F 86% 30.06 in - North 8.1 mph - N/A   Clear
11:20 PM 15.8 °F 5.1 °F 14.0 °F 93% 30.06 in 6.2 mi North 8.1 mph - N/A   Unknown
11:50 PM 14.0 °F 3.9 °F 12.2 °F 93% 30.06 in 6.2 mi North 6.9 mph - N/A   Unknown